• In Hungary
  • List of Countries
  • For 7 days
  • Water Temperature
  • Satellite Maps
  • Weather Map
  • News
  • Weather Widgets
  • user-avatar
    Login

    Hourly Weather Juzhno-Kuril'sk

    Today, 20 January, Saturday

    Time Temperature Precipitation Wind Pressure Humidity
    00:00 -10°C° 0 mm 6 mps 759 mmHg 83%
    01:00 -10°C° 0 mm 6 mps 759 mmHg 84%
    02:00 -10°C° 0 mm 5 mps 759 mmHg 86%
    03:00 -10°C° 0 mm 5 mps 759 mmHg 88%
    04:00 -10°C° 0 mm 5 mps 759 mmHg 89%
    05:00 -9°C° 0 mm 4 mps 759 mmHg 90%
    06:00 -9°C° 0 mm 4 mps 759 mmHg 90%
    07:00 -9°C° 0 mm 4 mps 759 mmHg 91%
    08:00 -8°C° 0 mm 3 mps 759 mmHg 90%
    09:00 -7°C° 0 mm 3 mps 759 mmHg 89%
    10:00 -6°C° 0 mm 2 mps 759 mmHg 87%
    11:00 -5°C° 0 mm 2 mps 758 mmHg 83%
    12:00 -4°C° 0 mm 2 mps 758 mmHg 80%
    13:00 -4°C° 0 mm 2 mps 758 mmHg 76%
    14:00 -4°C° 0 mm 2 mps 757 mmHg 77%
    15:00 -4°C° 0 mm 2 mps 757 mmHg 78%
    16:00 -4°C° 0 mm 2 mps 757 mmHg 79%
    17:00 -6°C° 0 mm 3 mps 757 mmHg 80%
    18:00 -7°C° 0 mm 4 mps 756 mmHg 81%
    19:00 -7°C° 0 mm 5 mps 756 mmHg 82%
    20:00 -7°C° 0.1 mm 5 mps 755 mmHg 85%
    21:00 -6°C° 0.1 mm 6 mps 754 mmHg 88%
    22:00 -7°C° 0.1 mm 7 mps 754 mmHg 91%
    23:00 -6°C° 0.8 mm 7 mps 753 mmHg 93%

    Tomorrow, 21 January, Sunday

    Time Temperature Precipitation Wind Pressure Humidity
    00:00 -5°C° 0.8 mm 6 mps 752 mmHg 94%
    01:00 -4°C° 0.8 mm 6 mps 751 mmHg 96%
    02:00 -6°C° 0.6 mm 8 mps 751 mmHg 88%
    03:00 -8°C° 0.6 mm 9 mps 751 mmHg 80%
    04:00 -9°C° 0.6 mm 11 mps 751 mmHg 72%
    05:00 -11°C° 0 mm 11 mps 752 mmHg 73%
    06:00 -11°C° 0 mm 11 mps 752 mmHg 73%
    07:00 -12°C° 0 mm 11 mps 752 mmHg 73%
    08:00 -12°C° 0 mm 11 mps 753 mmHg 72%
    09:00 -13°C° 0 mm 11 mps 753 mmHg 72%
    10:00 -13°C° 0 mm 11 mps 754 mmHg 71%
    11:00 -13°C° 0 mm 11 mps 753 mmHg 70%
    12:00 -12°C° 0 mm 11 mps 753 mmHg 69%
    13:00 -12°C° 0 mm 11 mps 753 mmHg 68%
    14:00 -12°C° 0 mm 11 mps 753 mmHg 69%
    15:00 -12°C° 0 mm 11 mps 753 mmHg 69%
    16:00 -13°C° 0 mm 12 mps 752 mmHg 69%
    17:00 -13°C° 0 mm 12 mps 753 mmHg 71%
    18:00 -15°C° 0 mm 13 mps 753 mmHg 72%
    19:00 -16°C° 0 mm 13 mps 753 mmHg 73%
    20:00 -17°C° 0 mm 13 mps 754 mmHg 74%
    21:00 -17°C° 0 mm 13 mps 754 mmHg 75%
    22:00 -17°C° 0 mm 13 mps 754 mmHg 76%
    23:00 -17°C° 0.1 mm 13 mps 755 mmHg 76%

    Day after tomorrow, 22 January, Monday

    Time Temperature Precipitation Wind Pressure Humidity
    00:00 -17°C° 0.1 mm 12 mps 755 mmHg 75%
    01:00 -17°C° 0.1 mm 12 mps 755 mmHg 75%
    02:00 -17°C° 0.1 mm 12 mps 756 mmHg 74%
    03:00 -17°C° 0.1 mm 12 mps 756 mmHg 73%
    04:00 -17°C° 0.1 mm 11 mps 757 mmHg 71%
    05:00 -17°C° 0.1 mm 11 mps 757 mmHg 72%
    06:00 -17°C° 0.1 mm 11 mps 758 mmHg 73%
    07:00 -17°C° 0.1 mm 10 mps 758 mmHg 74%
    08:00 -17°C° 0.1 mm 10 mps 758 mmHg 73%
    09:00 -15°C° 0.1 mm 10 mps 759 mmHg 71%
    10:00 -14°C° 0.1 mm 9 mps 759 mmHg 70%
    11:00 -14°C° 0 mm 9 mps 759 mmHg 69%
    12:00 -12°C° 0 mm 9 mps 759 mmHg 69%
    13:00 -11°C° 0 mm 9 mps 759 mmHg 69%
    14:00 -11°C° 0 mm 9 mps 759 mmHg 70%
    15:00 -11°C° 0 mm 8 mps 759 mmHg 72%
    16:00 -11°C° 0 mm 8 mps 759 mmHg 73%
    17:00 -11°C° 0 mm 8 mps 760 mmHg 73%
    18:00 -12°C° 0 mm 8 mps 760 mmHg 73%
    19:00 -12°C° 0 mm 7 mps 760 mmHg 72%
    20:00 -12°C° 0 mm 7 mps 760 mmHg 71%
    21:00 -11°C° 0 mm 6 mps 760 mmHg 70%
    22:00 -11°C° 0 mm 5 mps 760 mmHg 68%
    23:00 -10°C° 0 mm 4 mps 759 mmHg 71%

    23 January, Tuesday

    Time Temperature Precipitation Wind Pressure Humidity
    00:00 -9°C° 0 mm 4 mps 759 mmHg 74%
    01:00 -8°C° 0 mm 3 mps 758 mmHg 77%
    02:00 -8°C° 0.3 mm 4 mps 757 mmHg 83%
    03:00 -7°C° 0.3 mm 5 mps 757 mmHg 89%
    04:00 -6°C° 0.3 mm 6 mps 756 mmHg 95%
    05:00 -6°C° 0.6 mm 7 mps 755 mmHg 94%
    06:00 -6°C° 0.6 mm 9 mps 754 mmHg 93%
    07:00 -5°C° 0.6 mm 10 mps 753 mmHg 92%
    08:00 -5°C° 0.7 mm 10 mps 753 mmHg 93%
    09:00 -7°C° 0.7 mm 11 mps 752 mmHg 93%
    10:00 -7°C° 0.7 mm 11 mps 751 mmHg 93%
    11:00 -7°C° 1.1 mm 12 mps 749 mmHg 93%
    12:00 -7°C° 1.1 mm 12 mps 747 mmHg 93%
    13:00 -7°C° 1.1 mm 13 mps 746 mmHg 94%
    14:00 -7°C° 1.2 mm 13 mps 744 mmHg 94%
    15:00 -7°C° 1.2 mm 13 mps 743 mmHg 95%
    16:00 -7°C° 1.2 mm 13 mps 741 mmHg 95%
    17:00 -7°C° 0.8 mm 12 mps 740 mmHg 94%
    18:00 -7°C° 0.8 mm 12 mps 740 mmHg 93%
    19:00 -7°C° 0.8 mm 12 mps 739 mmHg 91%
    20:00 -7°C° 0.3 mm 12 mps 739 mmHg 91%
    21:00 -7°C° 0.3 mm 12 mps 739 mmHg 90%
    22:00 -7°C° 0.3 mm 12 mps 738 mmHg 90%
    23:00 -7°C° 0.2 mm 11 mps 738 mmHg 90%

    24 January, Wednesday

    Time Temperature Precipitation Wind Pressure Humidity
    00:00 -7°C° 0.2 mm 11 mps 738 mmHg 90%
    01:00 -7°C° 0.2 mm 11 mps 738 mmHg 90%
    02:00 -7°C° 0.1 mm 10 mps 738 mmHg 90%
    03:00 -7°C° 0.1 mm 10 mps 738 mmHg 89%
    04:00 -7°C° 0.1 mm 10 mps 738 mmHg 89%
    05:00 -7°C° 0.1 mm 10 mps 739 mmHg 89%
    06:00 -7°C° 0.1 mm 10 mps 739 mmHg 90%
    07:00 -7°C° 0.1 mm 10 mps 739 mmHg 90%
    08:00 -7°C° 0.1 mm 10 mps 739 mmHg 90%
    09:00 -6°C° 0.1 mm 9 mps 740 mmHg 90%
    10:00 -6°C° 0.1 mm 9 mps 740 mmHg 90%
    11:00 -6°C° 0.2 mm 9 mps 740 mmHg 90%
    12:00 -8°C° 0.2 mm 9 mps 740 mmHg 89%
    13:00 -8°C° 0.2 mm 9 mps 740 mmHg 89%
    14:00 -8°C° 0.3 mm 9 mps 740 mmHg 87%
    15:00 -9°C° 0.3 mm 10 mps 740 mmHg 86%
    16:00 -9°C° 0.3 mm 10 mps 740 mmHg 84%
    17:00 -10°C° 0.3 mm 9 mps 741 mmHg 86%
    18:00 -11°C° 0.3 mm 9 mps 741 mmHg 87%
    19:00 -11°C° 0.3 mm 8 mps 741 mmHg 88%
    20:00 -12°C° 0.3 mm 8 mps 741 mmHg 89%
    21:00 -12°C° 0.3 mm 8 mps 741 mmHg 91%
    22:00 -12°C° 0.3 mm 8 mps 741 mmHg 92%
    23:00 -12°C° 0.3 mm 8 mps 741 mmHg 91%

    25 January, Thursday

    Time Temperature Precipitation Wind Pressure Humidity
    00:00 -12°C° 0.3 mm 7 mps 741 mmHg 90%
    01:00 -12°C° 0.3 mm 7 mps 740 mmHg 89%
    02:00 -12°C° 0.1 mm 8 mps 740 mmHg 89%
    03:00 -13°C° 0.1 mm 8 mps 740 mmHg 88%
    04:00 -14°C° 0.1 mm 9 mps 740 mmHg 87%
    05:00 -14°C° 0.1 mm 9 mps 740 mmHg 86%
    06:00 -13°C° 0.1 mm 10 mps 740 mmHg 85%
    07:00 -13°C° 0.1 mm 10 mps 741 mmHg 85%
    08:00 -13°C° 0.1 mm 10 mps 741 mmHg 85%
    09:00 -11°C° 0.1 mm 9 mps 741 mmHg 85%
    10:00 -11°C° 0.1 mm 9 mps 742 mmHg 86%
    11:00 -11°C° 0.3 mm 9 mps 741 mmHg 82%
    12:00 -10°C° 0.3 mm 9 mps 741 mmHg 79%
    13:00 -10°C° 0.3 mm 9 mps 741 mmHg 75%
    14:00 -10°C° 0.2 mm 8 mps 741 mmHg 78%
    15:00 -11°C° 0.2 mm 8 mps 741 mmHg 81%
    16:00 -11°C° 0.2 mm 7 mps 741 mmHg 83%
    17:00 -10°C° 0.2 mm 6 mps 741 mmHg 84%
    18:00 -11°C° 0.2 mm 6 mps 742 mmHg 84%
    19:00 -11°C° 0.2 mm 5 mps 742 mmHg 84%
    20:00 -12°C° 0.2 mm 6 mps 742 mmHg 81%
    21:00 -12°C° 0.2 mm 6 mps 742 mmHg 78%
    22:00 -13°C° 0.2 mm 7 mps 742 mmHg 75%
    23:00 -13°C° 0.1 mm 7 mps 741 mmHg 76%
    Show more